Location: Laverne
(36.7100°N, 99.8930°W)
Time: 14:24:14
(UTC-06:00)

Cosmos 1937 Rocket - Pass Details

Date: 19 October 2017
Orbit: 747 x 780 km, 74.0° (Epoch: 24 November)

Event Time Altitude Azimuth Distance (km) Brightness Sun altitude
Exits shadow 05:50:52 35° 337° (NNW) 1,234 4.4 -24.8°
Drops below altitude 10° 05:54:21 10° 5° (N) 2,336 6.1 -24.1°
Sets 05:56:50 0° 12° (NNE) 3,265 7.0 -23.6°
